Terminal Aerodrome Forecast
Issued by NWS

Home | Current Version | Previous Version | Text Only | Print | Product List | Glossary On
Versions: 1 2 3 4 5 6 7 8 9 10 11 12 13 14 15 16 17 18 19 20 21 22 23 24 25 26
594
FTUS42 KCAE 300246 AAA
TAFOGB
TAF AMD
KOGB 300246Z 3003/3024 01010G16KT 6SM BR VCSH SCT008 OVC012
      TEMPO 3003/3006 5SM -SHRA BKN025
     FM300600 02008KT 6SM BR OVC007
     FM301400 25008KT 6SM -SHRA SCT007 OVC015
     FM301800 35008KT P6SM VCSH OVC035=

USA.gov is the U.S. government's official web portal to all federal, state and local government web resources and services.